Location: Peebles
(55.6412°N, 3.1714°W)
Time: 10:44:03
(UTC+01:00)

OBJECT A - Pass Details

Date: 10 July 2022
Orbit: 611 x 632 km, 97.9° (Epoch: 16 August)

Event Time Altitude Azimuth Distance (km) Brightness Sun altitude
Exits shadow 23:17:08 - 167° (SSE) 2,029 ? -8.1°
Reaches altitude 10° 23:17:15 10° 167° (SSE) 1,984 ? -8.1°
Maximum altitude 23:21:34 81° 254° (WSW) 633 ? -8.4°
Drops below altitude 10° 23:25:54 10° 343° (NNW) 1,989 ? -8.6°
Sets 23:28:06 0° 345° (NNW) 2,896 ? -8.8°
